Williston, ND

7:13 AM CDT on August 23, 2017 (GMT -0500)
Sloulin International

Weather History for KISN - October, 2014

Change the Weather History Date:

Thursday, October 16, 2014

  Actual Average Record
Temperature  
Mean Temperature 47 °F 43 °F  
Max Temperature 55 °F 57 °F 82 °F (1945)
Min Temperature 39 °F 30 °F 9 °F (1992)
Degree Days  
Heating Degree Days 18 22  
Month to date heating degree days 280 297  
Since 1 July heating degree days 587 643  
Cooling Degree Days 0 0  
Month to date cooling degree days 0 0  
Year to date cooling degree days 425 455  
Moisture  
Dew Point 42 °F    
Average Humidity 0    
Maximum Humidity 0    
Minimum Humidity 0    
Precipitation  
Precipitation 0.01 in 0.03 in 0.38 in (1980)
Month to date precipitation 0.17 0.50  
Year to date precipitation 9.95 12.68  
Snow  
Snow 0.00 in - - ()
Month to date snowfall 0.0  
Snow Depth 0.00 in    
Sea Level Pressure  
Sea Level Pressure 29.81 in    
Wind  
Wind Speed 16 mph (NW)    
Max Wind Speed 25 mph    
Max Gust Speed 36 mph    
Visibility 10 miles    
Events      
T = Trace of Precipitation, MM = Missing Value Source: NWS Daily Summary

Daily Weather History Graph

Daily Weather History Graph

Search for Another Location

Airport or City:

Trip Planner

Search our weather history database for the weather conditions in past years. The results will help you decide how hot, cold, wet, or windy it might be!

Date:

Astronomy

Oct. 16, 2014 Rise Set
Actual Time 8:15 AM CDT 7:03 PM CDT
Civil Twilight 7:44 AM CDT 7:35 PM CDT
Nautical Twilight 7:08 AM CDT 8:11 PM CDT
Astronomical Twilight 6:31 AM CDT 8:47 PM CDT
Moon 12:59 AM CDT (10/16) 3:42 PM CDT (10/16)
Length of Visible Light 11h 50m
Length of Day
10h 48m
Last Quarter, 41% of the Moon is Illuminated
Oct 16
Last Quarter
Oct 23
New
Oct 30
First Quarter
Nov 6
Full
Nov 14
Last Quarter

Hourly Weather History & Observations

Time (CDT) Temp. Windchill Dew Point Humidity Pressure Visibility Wind Dir Wind Speed Gust Speed Precip Events Conditions
12:52 AM 46.4 °F 45.2 °F 42.8 °F 87% 29.48 in 10.0 mi SW 3.5 mph - N/A   Clear
1:52 AM 48.9 °F - 42.1 °F 77% 29.51 in 10.0 mi SW 6.9 mph - N/A   Clear
2:52 AM 48.0 °F - 42.1 °F 80% 29.52 in 10.0 mi Calm Calm - N/A   Clear
3:52 AM 53.6 °F - 42.8 °F 67% 29.56 in 10.0 mi WSW 12.7 mph - N/A   Partly Cloudy
4:52 AM 55.0 °F - 42.1 °F 62% 29.57 in 10.0 mi WSW 20.7 mph 26.5 mph N/A   Partly Cloudy
5:52 AM 54.0 °F - 45.0 °F 72% 29.61 in 10.0 mi WSW 18.4 mph 25.3 mph N/A   Clear
6:52 AM 53.1 °F - 45.0 °F 74% 29.63 in 10.0 mi WSW 17.3 mph 24.2 mph 0.01 in   Overcast
7:52 AM 50.0 °F - 46.0 °F 86% 29.64 in 10.0 mi WSW 15.0 mph - N/A   Mostly Cloudy
8:52 AM 51.1 °F - 43.0 °F 74% 29.67 in 10.0 mi WNW 21.9 mph 32.2 mph N/A   Overcast
9:52 AM 50.0 °F - 43.0 °F 77% 29.70 in 10.0 mi WNW 18.4 mph 28.8 mph 0.00 in   Overcast
10:52 AM 50.0 °F - 43.0 °F 77% 29.73 in 9.0 mi WNW 18.4 mph 28.8 mph 0.00 in   Overcast
10:59 AM 50.0 °F - 43.0 °F 77% 29.71 in 9.0 mi WNW 18.4 mph 27.6 mph N/A   Overcast
11:52 AM 50.0 °F - 42.1 °F 74% 29.77 in 10.0 mi NNW 25.3 mph 31.1 mph N/A   Overcast
12:52 PM 51.1 °F - 42.1 °F 71% 29.80 in 10.0 mi NNW 23.0 mph 34.5 mph N/A   Overcast
1:52 PM 50.0 °F - 42.1 °F 74% 29.84 in 10.0 mi NNW 24.2 mph 31.1 mph N/A   Overcast
2:52 PM 50.0 °F - 42.1 °F 74% 29.89 in 10.0 mi NNW 17.3 mph 32.2 mph N/A   Overcast
3:52 PM 50.0 °F - 42.1 °F 74% 29.91 in 10.0 mi NNW 21.9 mph 28.8 mph N/A   Overcast
4:52 PM 51.1 °F - 42.1 °F 71% 29.94 in 10.0 mi North 21.9 mph - N/A   Overcast
5:52 PM 51.1 °F - 42.1 °F 71% 29.97 in 10.0 mi North 19.6 mph - N/A   Overcast
6:44 PM 51.1 °F - 42.1 °F 71% 29.99 in 10.0 mi NNW 17.3 mph - N/A   Overcast
6:52 PM 51.1 °F - 42.1 °F 71% 30.01 in 10.0 mi NNW 16.1 mph - N/A   Overcast
7:52 PM 50.0 °F - 39.9 °F 68% 30.04 in 10.0 mi NNW 15.0 mph - N/A   Overcast
8:52 PM 48.0 °F - 41.0 °F 77% 30.07 in 10.0 mi NW 10.4 mph - N/A   Overcast
9:52 PM 48.0 °F - 41.0 °F 77% 30.09 in 10.0 mi NNW 17.3 mph - N/A   Mostly Cloudy
10:52 PM 46.9 °F - 39.0 °F 74% 30.10 in 10.0 mi North 10.4 mph - N/A   Mostly Cloudy
11:03 PM 45.0 °F 41.2 °F 39.0 °F 80% 30.07 in 10.0 mi NNW 6.9 mph - N/A   Scattered Clouds
11:41 PM 43.0 °F 38.8 °F 39.0 °F 86% 30.08 in 10.0 mi West 6.9 mph - N/A   Mostly Cloudy
11:52 PM 45.0 °F 41.2 °F 39.9 °F 82% 30.11 in 10.0 mi WNW 6.9 mph - N/A   Mostly Cloudy